Powrót do katalogu

STARLINK-30306

AktywnyŁącznośćVLEO
NORAD 57633·PAYLOAD·🇺🇸 United States

Wystrzelony Aug 17, 2023 z Cape Canaveral Space Force Station

Loading…

Następne Przeloty (najbliższe 24 godziny)

TLE

ŚwieżeSource: CelesTrak SupGP

Epoka: Sep 15, 2026, 01:47 UTC

1 57633C 23122B   26258.07479167  .00044896  00000+0  16255-2 0  2587
2 57633  43.0011 103.1685 0001711 268.9780 265.4433 15.27568850    14

Śledź STARLINK-30306 w czasie rzeczywistym z AllMySat

Download on the App Store